Погода Фурманово

Погода Фурманово : погода сейчас, прогноз погоды и архив. Всё, что Вы хотите узнать о погоде Фурманово!

Поиск расширенной информации на нашем сайте:

Другие новости

Новости СМИ2

Главная страница сайта

Новости сайта

03.07.2017

Напоминаем, что на нашем специализированном сайте Метеоцентр.Азия вы можете получить высокодетализированные автоматические прогнозы погоды по пунктам России, СНГ и мира в авиационном формате (включающие направление и скорость ветра, видимость, явления погоды, количество и форму облачности, нижнюю и верхнюю границу облачности).


Погода Фурманово - сегодня

Время (UTC), дата Ветер
(°,м/с) 
Видим.   Явления Облачность Т
(°С)
Тd
(°С)
f(%) Тe
(°С)
Pmin
(гПа)
dP
(гПа)
Po
(мм)
O2
(г/м3)
Тmin Tmax R s Состояние
почвы
18 14.10.17 230 (ЮЗ) н/о  {ливн. осадки}  10/8 600 м кучево-дожд., средняя 
[Cb cap|As op]
+11.9 +9.9 88 +12  1011.8  0.5  758  291    +17     
21 14.10.17 230 (ЮЗ) н/о  дымка{ливн. осадки}  5/3 600 м кучево-дожд., средняя 
[Cb cap|Ac lent]
+10.3 +9.3 94 +9  1012  0.2  758  293           
00 15.10.17 230 (ЮЗ) н/о  дымка{ливн. осадки}  3/0 верхняя 
[Ci fib]
+8.1 +7.5 96 +7  1011.6  -0.4  758  295           
03 15.10.17 230 (ЮЗ) 4000 м  дымка  9/5 600 м кучево-дожд., средняя, верхняя 
[Cb cap|Ac lent|Cs]
+7.6 +6.7 94 +8  1011.7  0.1  758  296  +7.1         
06 15.10.17 180 (Ю) 0500 м  туман  ?/?  
+7.6 +7.2 97 +6  1011.1  -0.6  757  296  +7.1    0.3     
09 15.10.17 180 (Ю) 20000 м  {туман}  8/5 600 м кучево-дожд., средняя, верхняя 
[Cb cap|Ac cuf|Ci fib]
+12.7 +7.6 71 +12  1009.6  -1.5  756  290           
12 15.10.17 230 (ЮЗ) 20000 м    9/6 600 м кучево-дожд., средняя, верхняя 
[Cb cap|Ac cuf|Ci fib]
+13.7 +7.4 66 +13  1007.2  -2.3  755  288           
15 15.10.17 230 (ЮЗ) н/о  {ливн. осадки}  10/8 600 м кучево-дожд., средняя 
[Cb cap|Ac As]
+10.2 +8.1 87 +10  1006.1  -1.2  754  291    +13.8  0.4     
18 15.10.17 230 (ЮЗ) н/о  {ливн. осадки}  10/8 600 м кучево-дожд., средняя 
[Cb cap|Ac As]
+9.5 +7.6 88 +10  1003.6  -2.5  752  291    +13.8  0.4     
21 15.10.17 230 (ЮЗ) н/о  слаб. ливневой дождь  10/9 600 м кучево-дожд., средняя 
[Cb cap|Ac As]
+7.7 +6.4 91 +9  1001.3  -2.3  750  293           
00 16.10.17 140 (ЮВ) н/о  слаб. ливневой дождь  10/9 600 м кучево-дожд., средняя 
[Cb cap|Ac As]
+7.3 +6.2 93 +7  999  -2.3  748  293           
03 16.10.17 230 (ЮЗ) 4000 м  слаб. ливневой дождь  10/8 600 м кучево-дожд., средняя 
[Cb cap|Ac As]
+6.1 +5.4 95 +7  998.5  -0.5  748  294  +6         
06 16.10.17 140 (ЮВ) 4000 м  слаб. дождь{ливн. осадки}  10/10 600 м 
[Frnb]
+6.4 +5 91 +6  998.7  0.2  748  294  +6       
09 16.10.17 320 (СЗ) 20000 м  {дождь}  10/10 600 м 
[Frnb]
+7.3 +5.1 86 +7  998.7  748  293           
12 16.10.17 320 (СЗ) 20000 м    10/10 600 м кучево-дожд. 
[Cb cap]
+7.7 +4.8 82 +7  1000.2  1.5  749  293           
15 16.10.17 320 (СЗ) н/о    10/8 600 м кучево-дожд., средняя 
[Cb cap|Ac As]
+6.8 +4.3 84 +5  1001.7  1.5  750  294    +8.2     
18 16.10.17 320 (СЗ) н/о    10/10 600 м 
[Sc]
+5.9 +3.8 86 +4  1002.4  0.7  751  296    +8.2     
21 16.10.17 320 (СЗ) н/о  дымка  10/10 600 м 
[Sc]
+5.3 +4.1 92 +4  1002.5  0.1  751  296           
00 17.10.17 270 (З) н/о  дымка  10/10 600 м 
[Frnb]
+6.1 +5 93 +5  1002.6  0.1  751  295           
03 17.10.17 320 (СЗ) 4000 м  дымка  10/10 600 м 
[Frnb]
+6.1 +4.7 91 +5  1004  1.4  752  296  +4.4         
06 17.10.17 320 (СЗ) 20000 м  слаб. дождь  10/10 300 м 
[Frnb]
+7.2 +5.6 90 +6  1005  753  295  +4.4         
09 17.10.17 320 (СЗ) 4000 м  слаб. дождь  10/10 200 м 
[Frnb]
+8.5 +7.2 92 +8  1005  753  293           
12 17.10.17 320 (СЗ) 20000 м  слаб. дождь  10/10 300 м 
[Frnb]
+9.5 +8 90 +8  1006.3  1.3  754  292           
15 17.10.17 320 (СЗ) н/о  {дождь}  10/10 300 м 
[Frnb]
+9.1 +7.2 88 +7  1008.4  2.1  755  293    +10.7     
18 17.10.17 320 (СЗ) н/о  в посл. час дождь  10/10 300 м 
[Ns]
+8.5 +6.5 87 +8  1009.7  1.3  756  294    +10.7     
Время (UTC), дата Ветер
(°,м/с) 
Видим.   Явления Облачность Т
(°С)
Тd
(°С)
f(%) Тe
(°С)
Pmin
(гПа)
dP
(гПа)
Po
(мм)
O2
(г/м3)
Тmin Tmax R s Состояние
почвы

Для получения пояснительной информации подведите курсор к названию столбца.

ПОГОДА Фурманово - архив

Всё, что Вы хотите узнать о погоде Фурманово - удобно и подробно!

Выберите нужную дату (начиная с 1 января 2015* года) и нажмите кнопку "Найти".
Будут отображены архивные сводки погоды по пункту Фурманово, начиная с указанной даты.


Отображать данные в формате CSV (для использования в таблицах Excel)


Внимание! Наш архив погоды предназначен исключительно для личного некоммерческого использования в познавательных целях. Если Вам необходимы официальные справки о состоянии погоды (для производственных, юридических, коммерческих и т.п. целей), обращайтесь в органы Росгидромета.

*Примечание: данная дата относится к архиву по метеостанциям СССР (Россия, СНГ, Балтия).
Архив по метеостанциям Зарубежной Европы и Азии (кроме Китая) хранится 10 дней, по другим регионам земного шара (Китай, Африка, Америка, Австралия, Океания) - 1 день.

Фурманово - район местоположения метеостанции


Название, широта, долгота, высота метеостанции:
Фурманово 49.7°ш. 49.5°д. 10 м над ур. моря [Казахстан]

Дополнительная информация

В oтличие oт бoльшинства пoгoдных сайтoв мы публикуем пoдрoбную метеoинфoрмацию в детальнoм прoфессиoнальнoм фoрмате.

Характеристики температуры и влажнoсти вoздуха измеряются на высoте 2 м в тени вдали oт зданий и деревьев.
Скoрoсть ветра измеряется на высoте 10 м (на урoвне рoста челoвека скoрoсть ветра ниже в 1.5-2 раза). Если метеoстанция нахoдится в гoрoде или в лесу, тo скoрoсть ветра занижена на 2-4 м/с пo сравнению с oткрытым местoм. Скoрoсть ветра над акватoриями крупных рек и oзёр, а также на вершинах хoлмoв на 2-5 м/с выше, чем в oбычных услoвиях.
Атмoсфернoе давление в разных тoчках местнoсти мoжет значительнo oтличаться oт давления на метеoстанции, в зависимoсти oт услoвий рельефа (при пoдъёме на 10 м давление пoнижается примернo на 1 мм рт.ст.).